Location: Home
(42.5358°N, 72.7383°W)
Time: 08:08:56
(UTC-05:00)

Envisat - Pass Details

Date: 30 October 2021
Orbit: 764 x 766 km, 98.2° (Epoch: 07 December)

Event Time Altitude Azimuth Distance (km) Brightness Sun altitude
Rises 04:56:26 0° 26° (NNE) 3,240 6.7 -27.4°
Reaches altitude 10° 04:59:14 10° 41° (NE) 2,309 6.0 -26.8°
Maximum altitude 05:03:13 23° 93° (E) 1,595 5.4 -26.1°
Drops below altitude 10° 05:07:10 10° 145° (SE) 2,294 5.8 -25.4°
Sets 05:09:55 0° 160° (SSE) 3,215 6.4 -24.9°
